Flag for Germany Weather for the Past 2 Weeks in Georgsmarienhütte, Lower Saxony, Germany

Now
48 °F

Thundershowers. Partly sunny.


Feels Like: 41 °F
Forecast: 40 / 44 °F
Wind: 20 mph from South

Location: Muenster / Osnabrueck

Current Time: Feb 8, 2016 at 11:47:42 AM

Latest Report: Feb 8, 2016 at 11:20 AM


Visibility: N/A

Pressure: 29.21 "Hg

Humidity: 76%

Dew point: 41 °F

Location of GeorgsmarienhütteLocation

Historic Weather in Georgsmarienhütte — Graph

°F

Georgsmarienhütte Temperature Yesterday

Maximum temperature yesterday: 52 °F (at 6:20 AM)
Minimum temperature yesterday: 45 °F (at 9:20 PM)
Average temperature yesterday: 48 °F

High & Low Weather Summary for the Past Weeks

 TemperatureHumidityPressure
High55 °F (Jan 25, 12:20 PM)100% (Jan 24, 6:20 PM)30.39 "Hg (Jan 24, 6:20 PM)
Low36 °F (Feb 3, 11:50 PM)53% (Jan 28, 1:50 PM)29.21 "Hg (Feb 8, 8:20 AM)
Average46 °F83%29.96 "Hg
* Reported Jan 24 10:20 AM — Feb 8 10:50 AM, Georgsmarienhütte, Weather by CustomWeather, © 2016

Note: Actual official high and low records may vary slightly from our data, if they occured in-between our weather recording intervals... More about our weather records

Advertising

Georgsmarienhütte Weather History for the Previous 24 Hours

 ConditionsComfort  
Time TempWeatherWind HumidityBarometerVisibility
10:50 AM
Mon, Feb 8
48 °FSprinkles. Broken clouds.15 mph82%29.21 "HgN/A
10:20 AM48 °FLight rain. Partly sunny.17 mph82%29.21 "HgN/A
9:50 AM48 °FPartly sunny.16 mph82%29.21 "HgN/A
9:20 AM46 °FLight rain. Partly sunny.16 mph87%29.21 "HgN/A
8:50 AM46 °FPartly sunny.18 mph87%29.21 "HgN/A
8:20 AM45 °FPartly sunny.16 mph93%29.21 "HgN/A
7:50 AM45 °FLight rain. Partly cloudy.17 mph87%29.24 "HgN/A
7:20 AM45 °FLight rain. Partly cloudy.17 mph87%29.24 "HgN/A
6:50 AM46 °FLight rain. Passing clouds.22 mph82%29.24 "HgN/A
6:20 AM46 °FLight rain. Passing clouds.18 mph82%29.27 "HgN/A
5:50 AM46 °FLight rain. Passing clouds.21 mph76%29.27 "HgN/A
5:20 AM46 °FPassing clouds.17 mph71%29.30 "HgN/A
4:20 AM46 °FPassing clouds.21 mph71%29.33 "HgN/A
3:50 AM46 °FPassing clouds.17 mph66%29.36 "HgN/A
3:20 AM46 °FPassing clouds.20 mph66%29.39 "HgN/A
2:50 AM45 °FPassing clouds.16 mph66%29.39 "HgN/A
2:20 AM45 °FPassing clouds.15 mph66%29.42 "HgN/A
1:50 AM45 °FClear.16 mph66%29.45 "Hg10 mi
1:20 AM45 °FClear.14 mph66%29.45 "Hg10 mi
12:50 AM43 °FPassing clouds.15 mph71%29.47 "HgN/A
12:20 AM45 °FClear.15 mph66%29.50 "Hg10 mi
11:50 PM
Sun, Feb 7
45 °FPassing clouds.16 mph66%29.53 "HgN/A
11:20 PM45 °FPassing clouds.15 mph66%29.53 "HgN/A
10:50 PM45 °FPassing clouds.14 mph66%29.56 "HgN/A
10:20 PM45 °FPassing clouds.15 mph66%29.56 "HgN/A
9:50 PM45 °FPassing clouds.13 mph66%29.56 "HgN/A
9:20 PM45 °FPassing clouds.14 mph66%29.56 "HgN/A
8:50 PM46 °FPassing clouds.13 mph62%29.56 "HgN/A
8:20 PM46 °FClear.14 mph57%29.56 "Hg10 mi
7:50 PM46 °FPassing clouds.15 mph62%29.59 "HgN/A
7:20 PM46 °FClear.16 mph62%29.59 "Hg10 mi
6:50 PM46 °FPassing clouds.15 mph62%29.56 "HgN/A
6:20 PM46 °FPassing clouds.12 mph62%29.56 "HgN/A
5:50 PM48 °FPassing clouds.14 mph58%29.56 "HgN/A
5:20 PM48 °FPartly sunny.15 mph62%29.56 "HgN/A
4:20 PM48 °FPartly sunny.18 mph62%29.53 "HgN/A
3:50 PM48 °FPartly sunny.14 mph66%29.53 "HgN/A
3:20 PM48 °FBroken clouds.16 mph66%29.53 "HgN/A
2:50 PM50 °FBroken clouds.17 mph62%29.53 "HgN/A
2:20 PM50 °FBroken clouds.16 mph67%29.53 "HgN/A
1:50 PM50 °FBroken clouds.17 mph67%29.50 "HgN/A
1:20 PM50 °FBroken clouds.15 mph71%29.50 "HgN/A
12:50 PM50 °FPartly sunny.20 mph67%29.50 "HgN/A
12:20 PM50 °FPartly sunny.14 mph71%29.50 "HgN/A
11:50 AM50 °FPartly sunny.14 mph71%29.50 "HgN/A
11:20 AM48 °FPartly sunny.14 mph76%29.47 "HgN/A
Weather by CustomWeather, © 2016

See weather overviewHow to use our weather pages